[[{"header":{"parameterUnit":"m.s-1","parameterCategory":1,"la1":30.2991,"la2":30.254,"lo1":-89.0895,"lo2":-89.0444,"dy":0.0017,"dx":0.0017,"nx":28,"ny":28,"refTime":"2024-03-19T21:00:00:Z","depth":0,"parameterNumber":2,"parameterNumberName":"U-component_of_WINDS"},"data":[0,0,0,0,0,0,0,0,0,0,0,0,0,0,0,0,0,0,0,0,0,0,0,0,0,0,0,0,0,0,0,0,0,0,0,0,0,0,0,0,0,0,0,0,0,0,0,0,0,0,0,0,0,0,0,0,0,0,-4.0252,-4.0251,0,-4.0235,-4.0235,-4.0235,-4.0132,-4.013,-4.0127,-4.0125,-4.011,-4.0111,-4.0113,0,0,0,0,0,0,0,0,0,0,0,0,0,-4.0196,-4.0198,-4.0252,-4.0251,-4.0251,-4.0235,-4.0235,-4.0235,-4.0133,-4.013,-4.0127,-4.0124,-4.0109,-4.0111,-4.0114,0,0,0,0,0,0,0,0,0,0,0,0,0,-4.0204,-4.0198,-4.0252,-4.0198,-4.0193,-4.0235,-4.0235,-4.0235,-4.0133,-4.0129,-4.0126,-4.0122,-4.0108,-4.0111,-4.0114,-4.0206,0,0,-4.0123,-4.0124,0,0,0,0,0,0,0,0,-4.0204,-4.0206,-4.0206,-4.0202,-4.0196,-4.0182,-4.021,-4.0225,-4.0134,-4.0156,-4.0125,-4.012,-4.0137,-4.0137,-4.0142,-4.0205,-4.0205,-4.0123,-4.0125,-4.0126,-4.0127,0,0,0,0,0,0,0,-4.0203,-4.0206,-4.0245,-4.0206,-4.02,-4.0176,-4.0173,-4.0212,-4.0168,-4.0154,-4.0146,-4.0146,-4.0133,-4.014,-4.0141,-4.0205,-4.0123,-4.0125,-4.0127,-4.0128,-4.0343,-4.0347,0,0,0,0,0,0,-4.021,-4.0207,-4.0245,-4.0244,-4.0191,-4.018,-4.0176,-4.019,-4.0167,-4.016,-4.0149,-4.0141,-4.0137,-4.0138,-4.014,-4.0246,-4.0126,-4.0128,-4.013,-4.0339,-4.0344,-4.0348,0,0,0,0,0,0,-4.0209,-4.0215,-4.0246,-4.0224,-4.0226,-4.0185,-4.0201,-4.0192,-4.0198,-4.0163,-4.0155,-4.0163,-4.0134,-4.0136,-4.019,-4.0244,-4.013,-4.0132,-4.0334,-4.034,-4.0346,-4.046,0,0,0,0,0,0,-4.0208,-4.0215,-4.0249,-4.0225,-4.0227,-4.0297,-4.0204,-4.0194,-4.0203,-4.0193,-4.0174,-4.0168,-4.0131,-4.0187,-4.0193,-4.0246,-4.0135,-4.0329,-4.0337,-4.0344,-4.0451,-4.0469,-4.0485,0,0,0,0,0,-4.0206,-4.0282,-4.0251,-4.0257,-4.0269,-4.03,-4.0301,-4.0257,-4.0208,-4.0242,-4.022,-4.0169,-4.0238,-4.0193,-4.02,-4.0254,-4.0325,-4.0335,-4.0343,-4.0444,-4.0466,-4.0484,0,0,0,0,0,0,-4.0314,-4.0278,-4.0243,-4.0314,-4.0311,-4.0283,-4.0324,-4.0281,-4.0292,-4.0282,-4.0227,-4.0224,-4.0286,-4.0276,-4.0227,-4.0343,-4.0273,-4.0284,-4.0347,-4.0368,-4.0384,-4.0385,-4.0137,0,0,0,0,0,-4.0346,-4.0374,-4.0341,-4.0406,-4.0406,-4.0366,-4.0378,-4.0344,-4.0338,-4.0337,-4.0318,-4.0316,-4.0336,-4.0351,-4.0369,-4.045,-4.0444,-4.0491,-4.0507,-4.0521,-4.0531,-4.0573,-4.0593,-4.0377,-4.0377,-4.0377,0,0,-4.0413,-4.0396,-4.0417,-4.0427,-4.0421,-4.0451,-4.0366,-4.0401,-4.0423,-4.0342,-4.0392,-4.0379,-4.0372,-4.044,-4.0469,-4.0433,-4.0589,-4.0533,-4.0544,-4.0546,-4.0584,-4.0605,-4.0623,-4.0383,-4.0382,-4.0381,0,0,-4.0549,-4.0539,-4.0592,-4.0588,-4.0579,-4.0551,-4.0564,-4.0543,-4.0531,-4.058,-4.052,-4.0546,-4.0583,-4.058,-4.0584,-4.072,-4.0674,-4.0728,-4.0814,-4.0856,-4.0873,-4.0888,-4.0936,-4.0954,-4.0738,-4.0738,-4.0738,0,-4.0632,-4.0675,-4.0625,-4.0664,-4.0671,-4.0599,-4.0652,-4.065,-4.0648,-4.0655,-4.0614,-4.066,-4.065,-4.0717,-4.075,-4.0756,-4.0769,-4.0729,-4.0874,-4.0889,-4.0902,-4.0947,-4.0966,-4.0744,-4.0744,-4.0743,-4.0742,0,-4.0778,-4.0808,-4.0852,-4.0851,-4.0863,-4.0909,-4.0867,-4.0885,-4.085,-4.0828,-4.0879,-4.0865,-4.0878,-4.0891,-4.0858,-4.0954,-4.0931,-4.0884,-4.0813,-4.093,-4.0971,-4.0989,-4.0754,-4.0752,-4.075,-4.0748,0,0,-4.0981,-4.0952,-4.0969,-4.0968,-4.0953,-4.0976,-4.1019,-4.1032,-4.1048,-4.1049,-4.1084,-4.1118,-4.1073,-4.1078,-4.1044,-4.108,-4.1189,-4.1028,-4.1027,-4.1058,-4.1293,-4.1329,-4.1349,-4.1158,-4.1161,-4.1163,-4.1293,0,-4.1111,-4.1183,-4.114,-4.1218,-4.1246,-4.1178,-4.1216,-4.1211,-4.1191,-4.1212,-4.119,-4.1215,-4.1155,-4.1157,-4.119,-4.1169,-4.1235,-4.1159,-4.119,-4.1192,-4.1193,-4.1371,-4.1409,-4.1532,-4.1309,-4.1312,-4.1314,0,-4.1272,-4.128,-4.1361,-4.1341,-4.1351,-4.1385,-4.1393,-4.1414,-4.1408,-4.1391,-4.1396,-4.1353,-4.1395,-4.1325,-4.1382,-4.1331,-4.1341,-4.1333,-4.1336,-4.1337,-4.126,-4.1377,-4.157,-4.1589,-4.1339,-4.1337,-4.1335,0,-4.1412,-4.1443,-4.1495,-4.1496,-4.1474,-4.15,-4.1492,-4.1481,-4.1492,-4.1499,-4.1505,-4.1518,-4.1525,-4.1536,-4.1498,-4.145,-4.156,-4.1487,-4.1547,-4.1548,-4.1573,-4.1571,-4.177,-4.1581,-4.158,-4.158,-4.158,0,-4.1562,-4.1614,-4.1557,-4.1589,-4.1646,-4.1596,-4.1654,-4.1639,-4.1631,-4.1659,-4.1602,-4.163,-4.1578,-4.1601,-4.1571,-4.1623,-4.1626,-4.1614,-4.1606,-4.1619,-4.1621,-4.1625,-4.1615,-4.1585,-4.1584,-4.1583,-4.1582,0,-4.1727,-4.1691,-4.1744,-4.1718,-4.1713,-4.1756,-4.1734,-4.1763,-4.174,-4.1777,-4.1782,-4.1746,-4.177,-4.1733,-4.1753,-4.1733,-4.1804,-4.1783,-4.1806,-4.18,-4.1862,-4.1857,-4.207,-4.2095,-4.189,-4.1892,-4.1894,0,-4.1824,-4.1863,-4.1842,-4.1856,-4.1851,-4.1876,-4.1886,-4.1839,-4.1852,-4.1848,-4.1878,-4.1897,-4.1909,-4.1951,-4.1927,-4.1942,-4.192,-4.1994,-4.1922,-4.1935,-4.1921,-4.1919,-4.1923,-4.2009,-4.2011,-4.2013,-4.2015,0,-4.2001,-4.1982,-4.1998,-4.2009,-4.2022,-4.2028,-4.203,-4.2046,-4.1996,-4.2014,-4.2038,-4.2048,-4.2068,-4.2088,-4.2097,-4.2089,-4.2045,-4.2038,-4.2052,-4.2066,-4.2078,-4.2072,-4.1846,-4.2033,-4.2031,-4.203,-4.2029,-4.2028,-4.2135,-4.2166,-4.2156,-4.2176,-4.2173,-4.2176,-4.2202,-4.2181,-4.22,-4.2212,-4.2184,-4.2215,-4.2207,-4.2215,-4.2212,-4.2236,-4.2204,-4.2225,-4.223,-4.2236,-4.2246,-4.2075,-4.2238,-4.2237,-4.2236,-4.2236,-4.2236,0,-4.2309,-4.2299,-4.2318,-4.2322,-4.2339,-4.2294,-4.2294,-4.2311,-4.2338,-4.2335,-4.2349,-4.2376,-4.2396,-4.2373,-4.2388,-4.2411,-4.2391,-4.2417,-4.2414,-4.2413,-4.2274,-4.226,-4.2433,-4.2433,-4.2433,-4.2433,-4.2433,-4.2433,-4.2401,-4.2451,-4.243,-4.2478,-4.2468,-4.2497,-4.2501,-4.2503,-4.2501,-4.2533,-4.2549,-4.2534,-4.2523,-4.2536,-4.2552,-4.2545,-4.2553,-4.2586,-4.2572,-4.2442,-4.2423,-4.2405,-4.2391,-4.2589,-4.2589,-4.2709,-4.271,-4.2711]},{"header":{"parameterUnit":"m.s-1","parameterCategory":1,"la1":30.2991,"la2":30.254,"lo1":-89.0895,"lo2":-89.0444,"dy":0.0017,"dx":0.0017,"nx":28,"ny":28,"refTime":"2024-03-19T21:00:00:Z","depth":0,"parameterNumber":3,"parameterNumberName":"V-component_of_WINDS"},"data":[0,0,0,0,0,0,0,0,0,0,0,0,0,0,0,0,0,0,0,0,0,0,0,0,0,0,0,0,0,0,0,0,0,0,0,0,0,0,0,0,0,0,0,0,0,0,0,0,0,0,0,0,0,0,0,0,0,0,-0.8422,-0.8422,0,-0.8407,-0.8407,-0.8407,-0.8374,-0.8373,-0.8372,-0.8371,-0.8357,-0.8357,-0.8357,0,0,0,0,0,0,0,0,0,0,0,0,0,-0.8419,-0.842,-0.8422,-0.8422,-0.8421,-0.8407,-0.8407,-0.8407,-0.8374,-0.8373,-0.8372,-0.8371,-0.8357,-0.8357,-0.8357,0,0,0,0,0,0,0,0,0,0,0,0,0,-0.8414,-0.842,-0.8422,-0.8403,-0.8401,-0.8407,-0.8407,-0.8407,-0.8374,-0.8373,-0.8372,-0.8371,-0.8357,-0.8357,-0.8357,-0.8381,0,0,-0.8359,-0.8359,0,0,0,0,0,0,0,0,-0.8415,-0.8414,-0.8406,-0.8404,-0.8402,-0.8391,-0.8401,-0.8398,-0.8374,-0.8384,-0.8371,-0.837,-0.8369,-0.8368,-0.8368,-0.838,-0.8379,-0.8359,-0.8359,-0.8359,-0.8359,0,0,0,0,0,0,0,-0.8415,-0.8415,-0.8416,-0.8406,-0.8404,-0.8395,-0.8393,-0.84,-0.8383,-0.8383,-0.8381,-0.838,-0.8368,-0.8368,-0.8367,-0.8379,-0.8359,-0.8359,-0.8359,-0.8359,-0.8408,-0.8409,0,0,0,0,0,0,-0.8418,-0.8415,-0.8416,-0.8416,-0.8406,-0.8396,-0.8394,-0.8396,-0.8382,-0.8379,-0.838,-0.8378,-0.8368,-0.8367,-0.8367,-0.8392,-0.8359,-0.8359,-0.836,-0.8407,-0.8408,-0.8409,0,0,0,0,0,0,-0.8418,-0.8419,-0.8417,-0.8415,-0.8414,-0.8397,-0.84,-0.8396,-0.8396,-0.838,-0.8377,-0.8384,-0.8367,-0.8366,-0.8377,-0.8391,-0.836,-0.836,-0.8405,-0.8407,-0.8409,-0.8444,0,0,0,0,0,0,-0.8418,-0.8419,-0.8428,-0.8415,-0.8414,-0.8428,-0.84,-0.8397,-0.8397,-0.8393,-0.8382,-0.838,-0.8366,-0.8377,-0.8377,-0.8391,-0.836,-0.8404,-0.8406,-0.8408,-0.8441,-0.8446,-0.8451,0,0,0,0,0,-0.8418,-0.8439,-0.8428,-0.8429,-0.8425,-0.8429,-0.8428,-0.8412,-0.8398,-0.8406,-0.8396,-0.838,-0.8389,-0.8378,-0.8379,-0.8393,-0.8403,-0.8406,-0.8408,-0.8439,-0.8445,-0.845,0,0,0,0,0,0,-0.8454,-0.8437,-0.8425,-0.8442,-0.8437,-0.8423,-0.8434,-0.8419,-0.8418,-0.8415,-0.8395,-0.8393,-0.8406,-0.8401,-0.8388,-0.8414,-0.8394,-0.8396,-0.8417,-0.8423,-0.8427,-0.8428,-0.836,0,0,0,0,0,-0.8463,-0.8468,-0.8453,-0.8469,-0.8467,-0.8451,-0.8452,-0.844,-0.8434,-0.8432,-0.8422,-0.8417,-0.8419,-0.8421,-0.8421,-0.844,-0.8437,-0.845,-0.8455,-0.8458,-0.8461,-0.8469,-0.8474,-0.8417,-0.8417,-0.8417,0,0,-0.8484,-0.8475,-0.8479,-0.8476,-0.8471,-0.8476,-0.845,-0.8456,-0.8459,-0.8433,-0.8442,-0.8435,-0.8428,-0.8443,-0.8448,-0.8438,-0.8476,-0.8461,-0.8465,-0.8465,-0.8472,-0.8478,-0.8482,-0.8418,-0.8418,-0.8418,0,0,-0.8523,-0.8517,-0.8529,-0.8524,-0.8516,-0.8505,-0.8508,-0.8496,-0.849,-0.8499,-0.8479,-0.8483,-0.8486,-0.8482,-0.848,-0.8516,-0.85,-0.8516,-0.8541,-0.8549,-0.8554,-0.8558,-0.857,-0.8574,-0.8519,-0.8519,-0.8519,0,-0.8549,-0.8555,-0.8537,-0.8545,-0.8544,-0.8519,-0.8531,-0.8527,-0.852,-0.852,-0.8508,-0.8511,-0.8505,-0.8517,-0.8526,-0.8526,-0.8528,-0.8518,-0.8555,-0.8558,-0.8562,-0.8573,-0.8577,-0.8521,-0.8521,-0.8521,-0.852,0,-0.8587,-0.8592,-0.8603,-0.8596,-0.8596,-0.8606,-0.8589,-0.8591,-0.8579,-0.8569,-0.8577,-0.8569,-0.8567,-0.8569,-0.8557,-0.8579,-0.8573,-0.8558,-0.8538,-0.8569,-0.858,-0.8584,-0.8524,-0.8523,-0.8523,-0.8522,0,0,-0.8649,-0.8631,-0.8635,-0.8632,-0.8621,-0.8624,-0.8632,-0.863,-0.8631,-0.8627,-0.8633,-0.8636,-0.8622,-0.862,-0.8607,-0.8614,-0.8642,-0.8599,-0.8598,-0.8606,-0.8665,-0.8676,-0.8681,-0.8632,-0.8632,-0.8633,-0.8665,0,-0.8685,-0.8698,-0.8681,-0.8698,-0.8702,-0.8678,-0.8685,-0.8679,-0.8669,-0.867,-0.866,-0.8662,-0.8644,-0.8642,-0.8648,-0.8637,-0.8653,-0.8635,-0.8636,-0.8637,-0.8639,-0.8686,-0.8698,-0.8729,-0.8669,-0.867,-0.867,0,-0.8729,-0.8726,-0.8743,-0.873,-0.8731,-0.8737,-0.8733,-0.8735,-0.8727,-0.8719,-0.8716,-0.8701,-0.8707,-0.8687,-0.8695,-0.8683,-0.8682,-0.8677,-0.8678,-0.8677,-0.8655,-0.8686,-0.8738,-0.8743,-0.8677,-0.8676,-0.8676,0,-0.8771,-0.8772,-0.8781,-0.8779,-0.8764,-0.8769,-0.8763,-0.8754,-0.8753,-0.8749,-0.8748,-0.8746,-0.8744,-0.8742,-0.8726,-0.8713,-0.8736,-0.8715,-0.8729,-0.8729,-0.8735,-0.8735,-0.8787,-0.8735,-0.8735,-0.8735,-0.8735,0,-0.8813,-0.8824,-0.88,-0.8806,-0.8817,-0.8798,-0.8809,-0.8801,-0.8793,-0.8796,-0.8775,-0.8779,-0.8758,-0.8759,-0.8746,-0.8754,-0.8754,-0.8747,-0.8744,-0.8749,-0.875,-0.8748,-0.8745,-0.8736,-0.8736,-0.8736,-0.8736,0,-0.8862,-0.8847,-0.8855,-0.884,-0.8837,-0.8845,-0.8832,-0.8837,-0.8825,-0.883,-0.883,-0.8812,-0.8812,-0.8796,-0.8793,-0.8784,-0.8797,-0.879,-0.88,-0.8797,-0.8812,-0.8811,-0.8865,-0.8871,-0.8817,-0.8817,-0.8818,0,-0.889,-0.8898,-0.8883,-0.8883,-0.8878,-0.888,-0.8879,-0.8859,-0.8859,-0.885,-0.8855,-0.8853,-0.8851,-0.8852,-0.8839,-0.8836,-0.8828,-0.8847,-0.8828,-0.8832,-0.8828,-0.8827,-0.8827,-0.8852,-0.8852,-0.8853,-0.8853,0,-0.894,-0.8931,-0.8931,-0.8927,-0.8926,-0.8922,-0.8917,-0.8919,-0.8897,-0.8898,-0.8897,-0.8896,-0.8892,-0.889,-0.8885,-0.8878,-0.8862,-0.886,-0.8863,-0.8868,-0.8873,-0.8869,-0.8811,-0.8858,-0.8858,-0.8858,-0.8857,-0.8857,-0.8979,-0.8984,-0.8974,-0.8973,-0.8967,-0.8962,-0.8965,-0.8954,-0.8954,-0.8949,-0.8937,-0.8939,-0.8929,-0.892,-0.8915,-0.8915,-0.8905,-0.891,-0.8911,-0.8912,-0.8915,-0.8873,-0.8914,-0.8914,-0.8914,-0.8914,-0.8913,0,-0.9027,-0.9019,-0.9019,-0.9011,-0.9011,-0.8996,-0.8989,-0.8989,-0.899,-0.8983,-0.898,-0.8979,-0.8977,-0.8964,-0.896,-0.8963,-0.8955,-0.8962,-0.8962,-0.896,-0.8924,-0.8922,-0.8968,-0.8968,-0.8968,-0.8968,-0.8968,-0.8968,-0.9052,-0.9059,-0.905,-0.9054,-0.9046,-0.9047,-0.9044,-0.9039,-0.9033,-0.9032,-0.903,-0.9021,-0.9011,-0.9006,-0.9003,-0.8999,-0.8998,-0.9008,-0.9001,-0.8968,-0.8963,-0.8958,-0.8955,-0.9008,-0.9008,-0.9037,-0.9037,-0.9037]}]]